Weather History for KHCD - November, 2012

Change the Weather History Date:

Sunday, November 11, 2012

  Actual Average Record
Temperature  
Mean Temperature 35 °F -  
Max Temperature 49 °F 38 °F 69 °F (2005)
Min Temperature 21 °F 24 °F -3 °F (1986)
Degree Days  
Heating Degree Days 30    
Moisture  
Dew Point 26 °F    
Average Humidity 86    
Maximum Humidity 100    
Minimum Humidity 74    
Precipitation  
Precipitation 0.00 in - - ()
Sea Level Pressure  
Sea Level Pressure 29.79 in    
Wind  
Wind Speed 18 mph (West)    
Max Wind Speed 24 mph    
Max Gust Speed 31 mph    
Visibility 10 miles    
Events Snow    
Averages and records for this station are not official NWS values.
T = Trace of Precipitation, MM = Missing Value Source: NWS Daily Summary

Daily Weather History Graph

Daily Weather History Graph

Search for Another Location

Airport or City:

Trip Planner

Search our weather history database for the weather conditions in past years. The results will help you decide how hot, cold, wet, or windy it might be!

Date:

Astronomy

Nov. 11, 2012 Rise Set
Actual Time 7:10 AM CST 4:52 PM CST
Civil Twilight 6:38 AM CST 5:24 PM CST
Nautical Twilight 6:03 AM CST 5:59 PM CST
Astronomical Twilight 5:28 AM CST 6:33 PM CST
Moon 4:19 AM CST (11/11) 3:20 PM CST (11/11)
Length of Visible Light 10h 45m
Length of Day
9h 42m
Waning Crescent, 7% of the Moon is Illuminated
Nov 11
Waning Crescent
Nov 13
New
Nov 20
First Quarter
Nov 28
Full
Dec 6
Last Quarter

Hourly Weather History & Observations

Time (CST) Temp. Windchill Dew Point Humidity Pressure Visibility Wind Dir Wind Speed Gust Speed Precip Events Conditions
12:08 AM 49.1 °F - 49.1 °F 100% 29.52 in 7.0 mi WSW 13.8 mph 18.4 mph N/A   Overcast
12:28 AM 49.1 °F - 49.1 °F 100% 29.52 in 7.0 mi WSW 15.0 mph 21.9 mph N/A   Overcast
12:48 AM 44.6 °F 36.4 °F 44.1 °F 98% 29.54 in 3.0 mi West 20.7 mph 28.8 mph N/A   Overcast
1:08 AM 41.9 °F 32.6 °F 41.5 °F 99% 29.58 in 7.0 mi West 21.9 mph 31.1 mph N/A   Overcast
1:29 AM 40.3 °F 31.3 °F 40.1 °F 99% 29.58 in 10.0 mi West 18.4 mph 28.8 mph N/A   Overcast
1:49 AM 39.2 °F 29.3 °F 38.7 °F 98% 29.60 in 10.0 mi West 20.7 mph 26.5 mph N/A   Overcast
2:08 AM 39.2 °F 29.0 °F 38.5 °F 97% 29.61 in 10.0 mi West 21.9 mph 26.5 mph N/A   Overcast
2:29 AM 37.8 °F 28.0 °F 36.9 °F 97% 29.61 in 10.0 mi West 18.4 mph 26.5 mph N/A   Overcast
2:49 AM 36.7 °F 28.4 °F 35.6 °F 96% 29.62 in 10.0 mi West 12.7 mph 18.4 mph N/A   Overcast
3:08 AM 36.5 °F 26.0 °F 35.8 °F 97% 29.64 in 10.0 mi West 19.6 mph 24.2 mph N/A   Overcast
3:29 AM 36.5 °F 27.4 °F 35.8 °F 97% 29.65 in 10.0 mi West 15.0 mph - N/A   Overcast
3:48 AM 36.5 °F 28.2 °F 35.8 °F 97% 29.65 in 10.0 mi West 12.7 mph - N/A   Overcast
4:08 AM 35.8 °F 25.7 °F 35.2 °F 98% 29.67 in 10.0 mi West 17.3 mph 25.3 mph N/A   Overcast
4:29 AM 34.0 °F 22.7 °F 33.3 °F 97% 29.69 in 10.0 mi West 19.6 mph 25.3 mph N/A   Overcast
4:49 AM 34.0 °F 24.2 °F 32.9 °F 96% 29.69 in 10.0 mi West 15.0 mph 24.2 mph N/A   Overcast
5:29 AM 34.0 °F 23.4 °F 32.2 °F 93% 29.71 in 10.0 mi West 17.3 mph 23.0 mph N/A   Overcast
6:08 AM 31.8 °F 20.6 °F 29.8 °F 92% 29.71 in 10.0 mi West 17.3 mph 23.0 mph N/A   Overcast
6:49 AM 31.8 °F 20.6 °F 29.3 °F 90% 29.73 in 10.0 mi West 17.3 mph 23.0 mph N/A   Overcast
7:29 AM 31.1 °F 20.5 °F 28.4 °F 90% 29.75 in 10.0 mi WNW 15.0 mph - N/A   Overcast
7:49 AM 30.6 °F 18.2 °F 27.9 °F 90% 29.76 in 10.0 mi West 19.6 mph - N/A   Overcast
8:09 AM 29.8 °F 18.0 °F 26.8 °F 88% 29.76 in 10.0 mi West 17.3 mph 26.5 mph N/A   Overcast
8:29 AM 29.3 °F 16.6 °F 26.1 °F 88% 29.76 in 10.0 mi WNW 19.6 mph 25.3 mph N/A   Overcast
8:48 AM 29.3 °F 17.0 °F 26.1 °F 88% 29.80 in 10.0 mi West 18.4 mph 21.9 mph N/A   Overcast
8:53 AM 29.3 °F 17.0 °F 26.1 °F 88% 29.80 in 10.0 mi West 18.4 mph 21.9 mph N/A   Overcast
9:30 AM 28.4 °F 16.6 °F 26.6 °F 93% 29.78 in 10.0 mi West 16.1 mph - N/A   Overcast
9:50 AM 28.4 °F 17.0 °F 26.6 °F 93% 29.76 in 10.0 mi WNW 15.0 mph 24.2 mph N/A   Overcast
10:10 AM 28.4 °F 16.6 °F 26.6 °F 93% 29.78 in 10.0 mi WNW 16.1 mph 21.9 mph N/A   Overcast
10:30 AM 28.4 °F 15.8 °F 24.8 °F 86% 29.80 in 10.0 mi WNW 18.4 mph 26.5 mph N/A   Overcast
10:50 AM 28.4 °F 15.8 °F 24.8 °F 86% 29.80 in 10.0 mi West 18.4 mph - N/A   Overcast
11:04 AM 29.3 °F 18.2 °F 25.5 °F 86% 29.79 in 10.0 mi WNW 15.0 mph - N/A   Overcast
11:09 AM 29.3 °F 17.7 °F 25.7 °F 86% 29.79 in 10.0 mi WNW 16.1 mph - N/A   Overcast
11:16 AM 29.3 °F 17.7 °F 25.5 °F 86% 29.80 in 10.0 mi West 16.1 mph - N/A   Overcast
11:50 AM 28.4 °F 17.0 °F 24.8 °F 86% 29.82 in 10.0 mi West 15.0 mph - N/A   Overcast
12:10 PM 28.4 °F 18.0 °F 24.8 °F 86% 29.79 in 10.0 mi WNW 12.7 mph 21.9 mph N/A   Overcast
12:18 PM 29.3 °F 17.7 °F 25.7 °F 86% 29.79 in 10.0 mi West 16.1 mph 23.0 mph N/A   Overcast
12:29 PM 29.3 °F 17.7 °F 25.7 °F 86% 29.78 in 10.0 mi West 16.1 mph - N/A   Overcast
12:49 PM 29.3 °F 17.0 °F 25.2 °F 85% 29.80 in 10.0 mi West 18.4 mph 21.9 mph N/A   Overcast
1:08 PM 29.3 °F 15.9 °F 25.2 °F 85% 29.79 in 10.0 mi West 21.9 mph 27.6 mph N/A   Overcast
1:29 PM 29.3 °F 16.2 °F 25.0 °F 84% 29.81 in 10.0 mi West 20.7 mph 26.5 mph N/A   Overcast
1:49 PM 29.3 °F 17.3 °F 24.8 °F 83% 29.79 in 10.0 mi West 17.3 mph 24.2 mph N/A   Overcast
2:09 PM 29.3 °F 17.0 °F 24.3 °F 81% 29.80 in 10.0 mi West 18.4 mph 26.5 mph N/A   Overcast
2:28 PM 29.3 °F 17.3 °F 24.1 °F 81% 29.80 in 10.0 mi West 17.3 mph 23.0 mph N/A   Overcast
2:48 PM 29.3 °F 17.0 °F 23.9 °F 80% 29.81 in 10.0 mi West 18.4 mph - N/A   Overcast
3:09 PM 29.3 °F 18.6 °F 23.5 °F 79% 29.81 in 10.0 mi West 13.8 mph 25.3 mph N/A   Overcast
3:29 PM 29.3 °F 17.3 °F 23.2 °F 78% 29.82 in 10.0 mi West 17.3 mph 25.3 mph N/A   Mostly Cloudy
3:49 PM 29.3 °F 16.2 °F 23.0 °F 77% 29.82 in 10.0 mi West 20.7 mph 25.3 mph N/A   Overcast
4:08 PM 29.3 °F 17.0 °F 23.5 °F 79% 29.83 in 10.0 mi West 18.4 mph - N/A   Overcast
4:29 PM 29.3 °F 17.0 °F 23.0 °F 77% 29.84 in 10.0 mi West 18.4 mph 23.0 mph N/A   Overcast
4:48 PM 26.6 °F 12.4 °F 20.3 °F 77% 29.85 in 10.0 mi West 21.9 mph 26.5 mph N/A   Overcast
5:09 PM 26.6 °F 13.1 °F 19.8 °F 75% 29.85 in 10.0 mi West 19.6 mph 26.5 mph N/A   Overcast
5:29 PM 26.6 °F 13.8 °F 20.1 °F 77% 29.86 in 10.0 mi West 17.3 mph 25.3 mph N/A   Overcast
5:49 PM 26.6 °F 12.4 °F 20.1 °F 77% 29.87 in 10.0 mi West 21.9 mph - N/A   Overcast
6:08 PM 26.6 °F 13.1 °F 20.1 °F 77% 29.89 in 10.0 mi West 19.6 mph 25.3 mph N/A   Overcast
6:28 PM 24.4 °F 10.6 °F 17.8 °F 76% 29.89 in 10.0 mi West 18.4 mph 27.6 mph N/A   Overcast
6:49 PM 24.3 °F 8.9 °F 18.3 °F 78% 29.89 in 10.0 mi West 23.0 mph 26.5 mph N/A   Overcast
7:08 PM 23.9 °F 9.1 °F 18.3 °F 79% 29.90 in 10.0 mi West 20.7 mph 27.6 mph N/A   Overcast
7:29 PM 23.0 °F 8.0 °F 17.6 °F 80% 29.91 in 10.0 mi West 20.7 mph 25.3 mph N/A Snow Light Snow
7:49 PM 22.6 °F 6.8 °F 17.1 °F 79% 29.91 in 10.0 mi West 23.0 mph 27.6 mph N/A   Overcast
8:09 PM 21.9 °F 5.5 °F 16.3 °F 79% 29.92 in 10.0 mi West 24.2 mph - N/A   Overcast
8:28 PM 21.9 °F 6.9 °F 16.2 °F 78% 29.93 in 10.0 mi West 19.6 mph 25.3 mph N/A   Overcast
8:49 PM 21.7 °F 7.1 °F 15.8 °F 78% 29.93 in 10.0 mi West 18.4 mph - N/A   Overcast
9:08 PM 21.7 °F 8.0 °F 16.0 °F 78% 29.94 in 10.0 mi West 16.1 mph 25.3 mph N/A   Overcast
9:29 PM 21.9 °F 6.5 °F 15.8 °F 77% 29.94 in 10.0 mi West 20.7 mph 24.2 mph N/A Snow Light Snow
9:49 PM 21.7 °F 6.7 °F 15.6 °F 77% 29.94 in 10.0 mi West 19.6 mph 25.3 mph N/A Snow Light Snow
10:09 PM 21.7 °F 6.3 °F 15.1 °F 76% 29.94 in 10.0 mi West 20.7 mph 27.6 mph N/A   Overcast
10:29 PM 21.7 °F 7.5 °F 16.0 °F 78% 29.93 in 10.0 mi West 17.3 mph 24.2 mph N/A   Overcast
10:49 PM 21.7 °F 8.0 °F 15.6 °F 77% 29.93 in 10.0 mi West 16.1 mph - N/A   Overcast
11:08 PM 21.7 °F 8.0 °F 15.8 °F 78% 29.93 in 10.0 mi WSW 16.1 mph 19.6 mph N/A   Overcast
11:29 PM 21.7 °F 7.1 °F 15.6 °F 77% 29.93 in 10.0 mi WSW 18.4 mph 23.0 mph N/A   Overcast
11:49 PM 21.9 °F 6.2 °F 14.7 °F 74% 29.93 in 10.0 mi West 21.9 mph 27.6 mph N/A   Overcast